Theta_e
339 337 339 343 341 344 346 350 351 350 349 350 351 351 351 353 356 357 357 360 361 363 365 365 364 364 363 363 364 365 364 365 365 363 361 361 362 362 359 358 358 358 356 355 356 354 357 354 352 349 350 349 348 349 350 349 348 345 346 346 345 345 345
333 335 334 339 342 342 346 350 352 351 351 350 350 352 352 354 355 354 356 360 362 363 365 365 366 364 364 364 364 365 365 365 366 365 363 363 363 363 361 361 359 357 357 357 357 356 355 351 351 350 349 349 348 349 348 349 348 346 345 345 344 343 343
339 340 338 337 341 344 348 348 351 351 352 351 352 352 353 357 356 357 358 359 361 362 364 365 366 365 365 366 364 364 365 364 365 363 361 359 361 359 360 361 358 356 355 356 356 354 354 354 352 352 350 349 347 348 348 347 346 345 346 346 344 342 344
331 339 340 341 344 348 350 348 349 350 351 352 352 352 353 357 357 357 358 359 360 361 363 365 366 366 366 366 364 364 364 365 365 363 362 361 360 360 359 358 358 357 354 353 354 354 352 353 352 352 351 350 348 349 347 346 345 345 345 345 344 343 343
330 332 336 339 341 346 350 348 348 351 350 350 352 355 356 356 355 357 358 358 358 361 361 363 363 365 366 366 364 363 363 365 364 363 362 362 362 361 357 355 355 354 356 353 356 355 354 353 351 351 349 350 348 348 346 345 345 347 345 345 344 344 341
328 331 339 339 345 346 350 349 348 348 349 349 350 351 353 355 355 356 357 359 358 360 363 364 364 365 364 364 364 363 365 366 367 367 364 363 362 357 355 355 356 354 352 355 356 355 354 350 349 350 347 346 346 345 344 344 343 343 345 345 345 342 340
329 334 338 341 344 346 351 351 349 348 350 350 350 353 355 354 352 352 355 356 355 358 361 362 361 362 364 364 365 367 364 362 364 365 363 361 360 359 356 356 357 355 359 361 359 357 353 351 350 350 349 348 348 346 347 347 345 344 345 347 346 347 344
331 334 339 341 342 346 350 352 349 348 349 350 350 353 353 351 349 350 353 354 354 354 360 353 359 362 365 366 364 364 364 363 362 363 363 361 361 357 356 357 356 357 360 358 357 356 351 351 348 349 349 347 347 350 349 350 349 345 344 345 344 343 342
330 336 340 338 341 341 349 351 351 349 350 350 348 350 349 349 348 349 351 353 354 352 355 355 354 358 366 366 366 366 365 364 363 364 362 357 355 355 358 358 359 360 357 355 355 356 354 353 351 351 350 348 348 349 347 348 347 346 344 343 343 341 341
340 340 341 340 341 340 347 350 352 353 351 350 349 351 349 349 348 348 349 350 350 350 351 352 352 353 360 364 366 366 366 367 364 360 358 356 358 359 358 361 357 357 356 355 357 354 356 356 352 352 351 348 348 347 348 348 346 346 344 342 341 341 341
339 347 347 344 346 345 349 349 353 356 353 351 350 345 350 349 348 349 348 347 346 349 350 349 349 347 353 360 364 365 367 364 362 360 359 358 357 356 360 356 352 353 354 354 351 351 353 354 355 355 353 349 349 349 349 348 348 346 342 340 340 341 341
343 342 346 351 353 350 350 355 359 366 362 354 351 344 352 354 348 345 346 348 347 347 349 348 349 347 349 358 363 363 364 365 361 362 361 356 355 358 359 354 353 352 351 349 345 351 352 353 352 352 353 352 352 351 350 349 348 345 342 338 340 341 341
334 346 346 346 354 353 359 363 361 362 365 354 347 346 348 349 348 346 352 350 347 347 349 353 353 353 348 352 359 362 364 363 363 365 362 360 359 361 359 355 353 352 349 350 350 350 350 350 350 350 351 351 351 349 349 347 344 342 341 341 342 342 343
342 338 350 356 355 355 355 360 362 362 362 355 349 349 347 349 350 350 351 349 349 347 349 354 352 350 352 357 364 366 365 364 366 364 364 361 364 361 357 356 354 354 354 355 353 349 348 347 347 349 348 348 347 347 345 342 340 340 340 341 342 343 343
335 338 345 352 356 357 357 355 359 361 357 356 353 351 349 350 353 356 355 351 355 349 352 354 355 355 352 357 361 364 368 369 367 367 365 364 362 359 356 356 358 358 359 356 352 348 347 346 346 346 344 344 342 340 340 339 340 340 339 339 342 343 342
324 336 345 347 354 353 357 357 358 360 361 363 357 356 353 355 359 355 354 352 352 354 354 354 361 361 356 352 359 366 372 370 368 367 365 365 363 360 357 355 356 356 357 354 351 349 348 347 346 345 342 342 342 341 339 339 341 335 329 334 341 344 344
325 327 328 332 342 352 357 359 359 360 361 363 362 361 361 360 358 356 355 357 358 360 355 354 366 366 363 362 363 367 370 369 366 365 363 361 360 358 358 357 357 357 355 353 353 351 351 349 349 345 344 342 342 341 341 341 338 330 328 330 335 344 345
326 329 329 329 339 353 358 358 361 363 363 363 363 363 362 364 362 361 359 360 360 360 357 361 361 360 365 364 369 372 367 363 363 362 361 359 357 357 356 357 357 356 355 353 352 353 353 351 350 346 342 341 341 342 342 339 331 327 327 330 330 336 345
326 326 328 345 346 351 354 357 360 366 365 365 363 362 363 365 363 363 362 365 365 366 361 358 361 366 364 370 370 366 366 363 361 360 359 358 357 356 355 354 355 355 353 351 353 353 352 351 348 345 342 343 343 341 340 339 329 326 327 328 328 331 340
326 326 327 339 345 343 353 359 360 365 367 367 365 363 365 368 365 366 365 366 367 366 367 367 367 369 369 369 368 365 363 363 361 360 359 358 357 356 355 355 353 353 353 353 354 353 351 349 347 346 345 344 344 342 340 341 328 325 325 326 327 329 333
331 329 344 344 343 342 354 360 361 365 367 366 365 365 368 368 368 369 365 366 365 370 372 371 371 369 367 366 366 366 365 363 360 359 359 360 359 358 356 354 353 351 350 348 349 350 349 347 346 346 346 344 343 342 340 338 324 324 324 324 323 324 331
328 339 343 343 352 356 359 357 359 358 363 364 364 365 366 367 368 366 360 363 367 369 370 370 371 367 367 364 363 363 362 360 359 359 360 359 359 358 357 357 355 352 351 349 348 349 348 347 344 344 345 344 343 342 340 340 320 323 322 321 321 323 337
331 331 335 346 347 352 358 361 360 361 368 365 363 363 366 367 365 362 362 366 367 370 369 369 368 366 368 365 363 360 358 358 358 359 359 359 358 357 356 355 356 355 354 350 347 345 344 345 343 346 345 344 344 342 342 339 327 320 319 319 319 324 340
333 332 332 340 349 351 363 363 362 365 365 364 365 367 366 366 368 368 369 368 368 369 369 368 367 368 368 365 363 361 359 358 356 357 356 356 355 355 355 355 355 354 353 349 346 343 343 344 345 346 346 344 343 341 340 339 330 316 316 316 316 325 340
331 329 336 343 347 352 357 358 360 360 363 363 360 366 370 371 369 368 366 367 369 370 367 365 365 365 363 363 362 360 359 356 356 356 355 354 354 353 351 351 351 351 351 348 348 347 347 344 342 341 343 339 342 340 339 339 332 314 315 314 314 326 341
335 335 339 341 346 353 360 363 363 361 360 362 366 366 368 367 367 367 367 368 368 365 365 365 366 365 364 361 358 359 357 357 358 357 356 354 354 353 352 351 350 348 347 347 346 344 344 343 342 342 341 342 343 342 340 339 342 329 314 313 313 317 342
340 339 340 344 350 355 359 359 359 358 359 360 365 363 366 367 365 365 367 367 366 365 365 366 365 363 362 360 358 356 356 358 357 356 357 355 354 352 350 349 349 348 348 346 344 343 344 342 342 341 341 340 341 340 340 340 340 337 313 312 312 315 323
341 342 346 349 354 354 355 354 356 355 357 363 362 363 363 365 365 366 367 365 365 366 366 365 364 363 361 359 358 356 356 356 357 357 356 355 354 352 349 348 350 349 348 345 344 344 343 343 342 340 339 339 338 339 339 341 339 347 316 313 311 313 314
344 343 346 353 354 355 353 353 353 355 359 358 361 363 364 366 366 366 363 362 362 364 367 365 364 362 359 358 356 355 354 354 355 353 353 353 354 352 348 348 349 349 349 345 344 343 342 340 340 337 336 337 338 338 340 343 341 328 328 311 309 310 312
350 352 355 354 353 352 352 355 360 360 359 357 358 356 360 363 360 358 359 361 364 364 364 363 361 359 356 354 353 352 352 353 353 354 353 353 352 350 347 347 347 347 345 343 340 337 337 337 337 335 333 332 333 335 335 341 344 327 322 319 311 310 309
349 348 347 348 349 357 356 355 354 354 351 348 350 350 353 357 359 359 358 361 364 363 361 360 358 356 354 352 350 350 351 352 351 352 352 351 349 347 345 345 344 342 342 340 337 336 337 337 337 336 334 333 333 333 334 338 343 338 326 318 311 309 307
343 345 345 348 351 352 354 355 356 356 356 359 362 364 366 362 360 359 361 364 364 363 362 359 356 353 351 351 350 351 350 350 350 350 349 348 347 346 344 344 341 339 338 335 334 336 337 336 335 334 334 332 332 332 334 336 338 338 330 321 316 314 309
342 341 341 341 342 345 345 346 345 346 346 348 354 357 359 362 364 365 365 363 363 361 358 354 352 350 351 352 351 352 351 348 346 345 345 346 345 345 344 342 339 339 337 335 333 335 335 335 334 332 329 329 330 331 333 335 335 336 335 332 330 328 321
347 343 342 344 345 345 344 342 344 346 347 345 346 349 354 359 359 360 360 358 356 355 355 352 351 350 350 350 350 349 348 345 344 342 342 342 342 341 340 339 338 336 336 335 335 334 333 332 330 329 330 329 330 332 333 333 335 336 334 336 336 335 332
350 350 346 342 343 345 346 348 348 350 351 352 355 356 356 357 358 358 359 358 357 356 353 349 348 349 348 348 348 346 346 343 342 342 341 342 343 345 345 344 339 338 340 345 343 341 336 336 333 333 333 332 332 331 331 334 334 337 326 344 322 332 331
343 345 346 345 344 347 349 351 352 352 352 352 355 355 355 355 356 356 354 355 354 353 351 349 346 347 345 344 343 343 342 341 340 341 340 340 339 335 323 305 296 307 341 333 312 302 298 308 331 328 333 335 335 332 335 334 332 313 309 309 310 309 309
340 342 343 346 345 346 347 348 349 350 350 351 353 353 353 354 353 353 352 353 353 351 351 349 346 344 343 342 341 340 341 339 339 340 341 340 339 337 334 330 321 297 293 301 304 298 293 293 294 298 304 327 332 320 302 302 300 298 299 301 299 297 297
337 338 340 344 346 347 346 346 348 349 348 350 350 350 351 350 351 352 351 352 351 351 351 349 347 344 343 343 342 341 343 341 340 339 339 339 339 338 336 335 333 326 300 293 295 296 294 293 292 293 295 296 309 323 325 305 297 296 296 296 295 295 294
Wind_Speed
23 19 18 17 19 20 22 23 23 22 22 21 21 23 23 20 19 17 17 17 19 18 19 18 17 16 17 15 16 14 13 12 10 10 10 9 8 8 8 7 7 6 5 5 4 4 4 3 1 3 3 3 4 4 4 4 4 4 4 4 3 3 3
16 17 16 18 20 24 25 23 23 21 22 22 22 23 22 22 19 19 18 18 19 19 19 19 18 17 16 15 14 15 14 13 12 9 9 9 8 8 8 7 6 6 4 3 3 3 4 5 5 5 5 5 5 5 6 5 5 5 5 6 5 4 4
16 16 18 19 21 22 24 23 22 22 22 22 22 23 23 21 21 20 19 19 20 19 18 19 19 17 16 16 15 16 15 14 13 13 12 11 11 11 9 8 7 6 5 4 3 4 4 3 5 4 4 4 6 6 6 6 6 6 6 4 6 6 6
10 16 16 19 20 20 22 23 25 23 23 24 24 25 23 22 21 20 19 20 21 20 20 19 18 18 17 16 16 15 15 15 14 13 13 12 12 10 9 8 7 6 7 6 5 4 4 4 4 4 4 4 5 6 6 6 7 7 6 6 5 7 6
15 16 15 15 20 21 21 22 23 23 24 25 24 22 22 22 22 21 20 20 21 21 21 20 17 17 15 16 13 13 14 15 14 13 13 11 11 10 9 9 8 8 6 6 7 5 5 5 5 4 5 5 5 6 7 7 7 6 7 7 7 7 6
17 14 13 16 17 19 22 24 26 27 25 25 25 23 23 24 22 24 23 21 20 20 19 19 18 16 16 16 15 14 14 15 14 13 12 12 11 10 11 10 8 9 8 7 8 7 8 7 6 7 7 9 8 8 8 8 8 8 8 7 7 7 7
12 13 11 13 17 21 23 23 25 25 24 23 22 21 22 23 24 23 21 22 23 21 22 22 20 18 15 15 15 15 16 16 15 15 13 13 13 11 10 10 10 8 7 8 8 9 10 11 11 10 9 9 9 10 9 9 9 9 7 6 6 6 6
12 13 15 14 15 19 22 22 23 22 21 19 21 23 24 23 22 23 23 22 22 22 20 21 20 16 14 15 15 16 16 16 16 15 13 12 12 13 13 12 10 11 13 12 12 12 13 14 13 12 12 11 10 10 10 8 9 9 7 7 7 8 7
18 19 19 17 18 20 21 20 21 21 22 22 22 22 23 22 22 23 23 22 21 22 22 20 18 16 13 14 14 16 15 16 15 15 16 16 15 17 16 14 14 14 14 12 13 14 15 14 14 13 13 11 11 11 10 9 9 8 7 7 8 9 9
10 13 13 15 15 18 16 18 18 16 20 19 18 18 22 21 20 21 22 22 21 23 23 21 18 16 15 15 16 16 16 16 15 18 19 20 17 19 19 18 16 15 16 17 14 15 13 13 14 14 13 14 14 12 10 10 9 9 9 9 10 10 9
8 10 11 14 17 19 17 16 17 15 18 19 18 20 19 20 20 21 21 21 21 21 21 20 19 20 19 18 19 18 17 19 19 20 21 21 19 21 21 19 17 15 17 14 15 12 11 10 11 12 13 12 12 12 12 12 11 10 10 10 10 10 9
6 4 5 9 11 14 16 14 13 11 14 16 18 20 17 18 20 20 20 22 21 20 19 20 19 19 18 19 19 17 20 19 20 22 22 21 20 22 21 19 19 18 16 15 15 11 11 12 11 11 12 11 11 12 12 11 11 10 10 11 11 10 9
2 5 9 12 13 13 11 10 13 16 14 17 21 20 19 20 21 20 17 19 21 19 18 17 18 16 18 17 19 16 18 20 20 19 20 19 19 19 19 20 21 21 20 17 13 14 13 13 14 12 13 12 12 12 12 12 11 10 10 11 11 10 10
6 6 8 8 10 13 15 15 14 14 15 18 20 20 20 21 21 20 18 19 19 19 18 16 18 18 17 16 14 13 18 20 19 18 18 18 18 19 19 18 17 18 15 11 13 15 16 16 15 13 12 13 13 12 12 12 12 11 10 11 12 11 11
12 11 11 13 13 13 13 14 13 16 18 18 21 21 22 20 20 17 17 19 17 19 19 18 17 17 18 15 15 16 14 14 14 15 16 19 19 18 18 17 15 13 11 12 13 13 15 15 14 13 13 12 11 12 11 11 11 10 10 11 12 12 11
17 20 18 14 13 15 14 14 15 15 17 17 20 20 21 19 18 20 20 20 20 18 17 15 15 15 17 17 14 14 13 14 14 16 17 16 16 17 17 15 14 12 11 12 14 14 14 14 13 14 14 14 13 13 11 10 9 10 13 11 10 12 10
15 13 11 14 9 12 12 14 15 16 17 18 20 22 20 18 18 18 21 19 20 18 18 16 14 14 16 16 14 13 13 14 15 16 16 14 14 13 13 14 12 12 13 13 13 13 12 13 13 14 13 13 13 14 11 10 9 13 14 14 13 10 10
14 13 14 9 8 10 14 15 16 17 19 22 23 22 20 18 19 19 19 19 19 19 18 17 18 18 15 12 14 15 17 16 16 15 14 13 15 15 15 14 13 12 13 12 12 10 10 11 10 10 10 10 11 12 11 10 12 15 15 15 14 12 10
14 15 15 9 10 11 14 16 18 20 22 21 20 20 22 21 19 18 18 17 16 15 17 18 18 16 16 17 18 17 16 17 18 16 15 17 17 16 14 14 12 12 11 11 10 9 10 9 9 9 9 9 11 11 11 11 14 15 16 15 16 15 13
16 16 12 6 7 11 13 15 15 16 18 18 20 21 20 19 19 18 18 17 16 17 15 15 16 16 17 18 17 18 18 18 19 19 18 16 15 15 14 13 12 10 8 7 7 7 7 7 8 8 9 9 9 9 10 10 14 17 17 16 16 14 11
14 12 10 11 12 13 14 16 16 17 17 19 19 17 17 18 17 18 18 17 17 15 14 16 16 17 17 16 16 16 16 16 17 18 17 15 15 14 14 12 10 10 9 8 7 7 7 8 8 8 9 9 8 9 9 9 15 18 18 17 15 14 11
14 13 12 11 12 13 14 16 17 19 18 17 18 19 19 19 19 19 19 18 17 16 16 17 17 18 17 16 16 16 16 18 18 16 13 14 13 14 14 13 11 10 9 9 8 7 7 7 7 8 8 8 9 9 9 7 15 16 16 15 14 14 8
18 16 13 11 12 14 14 15 15 15 16 17 18 18 18 18 18 18 18 18 17 16 17 17 17 18 18 16 16 15 14 14 14 13 13 13 13 15 15 14 12 11 10 9 9 8 8 8 8 8 9 10 10 11 9 9 14 17 17 15 15 12 9
12 14 13 12 11 11 12 12 13 15 17 18 19 20 17 18 18 17 17 17 17 18 17 17 18 18 18 18 18 17 14 14 15 14 13 12 14 13 12 12 11 12 11 9 10 9 8 7 7 8 7 9 10 12 11 10 12 16 16 15 15 13 11
13 13 12 11 12 14 14 14 15 16 17 17 18 17 16 17 18 18 18 18 18 18 18 18 19 18 18 17 14 13 14 15 15 14 13 13 13 12 11 11 11 12 9 9 8 7 7 7 6 6 5 8 10 9 10 9 11 16 15 15 16 14 10
11 11 12 11 13 13 13 13 13 16 18 20 19 18 17 17 16 16 16 17 17 18 17 16 15 14 13 14 15 15 15 14 14 13 12 12 11 9 9 9 9 9 9 8 8 9 9 8 7 8 9 8 6 6 8 10 7 13 15 15 15 15 9
10 11 11 11 10 12 12 13 13 15 16 15 16 18 18 16 16 16 16 17 17 17 16 15 15 15 14 14 14 15 15 13 14 14 11 11 10 10 11 11 10 10 10 10 9 8 7 8 8 8 7 7 8 7 9 8 8 13 17 15 15 16 14
9 10 9 10 11 13 13 14 14 15 15 14 16 15 15 15 16 16 15 16 17 17 15 15 15 14 14 14 14 14 14 13 13 12 11 11 10 11 11 11 10 9 10 8 7 7 8 7 7 7 7 7 7 6 6 7 4 9 15 16 17 16 15
10 11 11 13 13 13 14 15 16 15 15 15 17 16 17 17 16 14 13 14 15 15 15 15 14 14 14 13 13 12 12 12 13 9 9 10 11 11 11 11 10 8 7 6 7 7 7 7 6 6 5 6 6 5 6 6 9 13 11 13 13 14 13
9 9 11 13 14 16 18 16 16 16 17 16 15 15 15 15 14 13 13 15 13 13 12 13 14 14 14 13 13 12 11 10 10 8 8 9 10 12 12 11 9 8 7 7 7 7 7 7 6 7 8 8 7 7 7 7 6 9 12 12 14 14 14
12 13 15 16 16 16 16 16 16 15 15 13 14 13 13 13 13 13 13 12 13 13 13 13 15 14 14 14 14 14 12 10 10 10 10 11 11 11 9 9 9 8 7 8 7 7 7 7 7 7 7 7 7 7 7 6 6 6 8 11 9 7 7
13 14 14 15 16 16 17 17 16 16 16 15 14 13 11 12 14 15 14 13 13 14 13 12 11 11 13 13 13 14 15 14 13 12 11 13 9 8 8 9 9 8 8 8 7 7 7 8 7 8 8 7 7 7 8 8 8 8 7 7 7 6 7
14 13 14 15 15 15 15 16 16 16 16 14 12 12 12 13 12 13 13 14 14 12 12 13 14 12 11 12 13 14 13 14 11 10 10 10 11 11 9 9 8 8 7 7 8 8 8 8 8 8 8 8 8 6 6 7 7 8 9 9 9 8 8
14 14 14 14 14 14 15 15 15 15 14 12 10 9 10 10 11 10 11 12 14 15 14 14 14 14 13 14 12 11 11 10 10 11 11 11 12 11 11 9 8 7 8 8 8 8 8 8 8 8 8 9 7 7 6 5 6 7 9 9 8 8 8
13 14 13 14 13 13 12 13 14 13 13 12 10 10 10 10 10 12 13 13 14 14 14 13 14 13 15 13 11 11 9 9 9 9 10 11 8 4 3 2 6 8 8 5 3 2 4 8 7 7 7 6 7 7 7 5 7 7 3 7 8 9 8
13 14 13 12 12 13 13 13 12 12 12 11 10 11 11 11 11 11 11 12 12 12 13 13 14 14 14 12 12 12 10 10 11 10 11 10 7 7 6 10 12 11 2 5 7 11 13 11 4 4 4 3 6 5 3 6 6 11 13 15 14 7 6
12 12 12 12 12 13 12 12 12 12 12 10 10 10 10 10 11 11 11 10 9 10 12 12 11 12 12 11 11 11 11 11 10 10 9 10 10 7 7 7 8 14 15 11 7 9 11 11 8 7 7 4 5 8 15 13 13 13 13 13 13 12 11
12 11 11 12 12 11 11 11 10 10 10 9 9 9 10 10 10 11 11 10 9 9 10 11 11 11 12 11 11 11 10 12 11 11 11 10 10 10 8 7 6 5 12 13 11 11 11 10 8 7 8 9 8 6 5 8 10 13 13 13 13 12 13
Wind_Direction
178 198 206 191 200 205 204 192 190 190 189 189 191 192 193 195 195 191 193 192 192 192 191 192 193 193 193 193 193 191 191 190 189 191 195 198 197 197 193 186 183 191 177 175 172 175 171 173 214 198 202 191 215 192 215 190 200 205 196 202 214 268 216
175 188 197 194 193 204 203 193 189 189 189 189 189 190 193 193 192 194 192 191 192 193 191 192 193 194 194 192 191 190 190 189 187 188 191 195 194 194 198 184 179 172 170 164 150 163 156 162 194 184 199 207 195 200 190 195 204 211 209 195 209 209 228
170 188 192 195 200 205 201 194 191 189 189 188 189 190 192 189 190 192 190 191 192 193 193 193 194 195 194 194 192 190 189 188 186 187 192 194 192 191 190 181 176 166 178 160 172 147 153 166 167 199 194 194 202 194 206 201 201 207 228 228 201 210 220
203 195 204 199 200 203 197 196 192 191 190 190 190 190 190 187 187 190 193 192 192 192 196 195 194 195 194 193 194 191 190 189 188 188 192 193 188 189 179 176 168 176 179 168 164 155 150 185 157 177 191 205 205 203 206 215 210 207 212 224 223 229 233
216 212 212 202 201 201 197 196 194 193 192 192 190 188 188 186 187 190 193 195 194 195 196 196 196 196 194 193 195 194 192 190 189 190 190 191 187 178 180 182 156 196 159 171 134 155 148 146 160 178 188 208 210 216 219 209 216 208 213 214 225 228 226
202 192 197 213 200 203 198 196 195 193 192 190 189 187 187 189 189 192 193 194 196 194 194 196 198 194 194 194 195 193 192 191 190 187 188 187 183 180 187 160 175 190 165 150 154 156 152 161 175 189 193 195 207 218 212 210 207 210 212 215 223 229 228
187 164 186 216 212 205 197 197 196 194 192 189 186 184 187 189 192 192 192 194 196 194 194 196 196 196 194 193 193 192 192 192 189 188 187 188 181 181 179 172 168 173 142 148 155 158 167 176 186 180 186 197 202 206 210 204 204 205 208 207 216 231 242
187 155 175 208 227 213 198 195 195 193 191 188 185 187 190 190 191 192 194 194 195 196 196 197 197 196 192 193 193 192 192 193 190 188 186 171 178 185 178 167 162 163 145 155 165 175 183 189 186 182 177 190 195 201 204 193 202 207 206 212 217 226 230
179 166 182 190 202 222 207 193 192 190 185 189 190 189 190 190 191 192 195 195 194 197 199 193 195 198 190 195 193 191 190 191 189 185 184 177 185 179 171 171 159 149 156 168 180 184 190 185 184 178 181 187 193 196 200 197 199 204 208 212 222 225 227
134 153 171 184 199 225 214 194 191 186 181 186 189 185 189 193 192 191 194 197 196 198 197 193 192 192 194 192 197 195 192 191 186 189 188 188 181 178 172 162 159 164 171 181 182 191 187 179 178 180 182 187 191 190 189 194 202 202 205 215 222 223 224
132 149 178 194 198 208 208 194 187 189 184 183 184 187 187 191 192 192 193 196 198 196 196 192 188 186 194 192 195 196 196 194 191 186 187 187 183 180 174 166 165 172 180 186 193 188 167 173 174 180 184 185 183 182 181 187 193 198 211 221 222 221 224
136 176 203 202 208 208 203 195 185 181 182 180 182 186 185 187 193 194 192 196 197 197 190 190 187 193 189 189 195 196 197 196 192 188 186 190 187 179 175 169 172 181 190 193 196 167 169 171 181 184 184 177 174 179 183 186 188 191 208 227 228 219 221
227 207 206 211 204 206 204 191 188 188 183 181 183 185 188 188 192 195 191 194 198 196 190 181 186 190 191 191 190 189 194 197 199 188 185 186 182 176 175 178 181 186 196 197 182 172 174 182 185 185 184 176 172 177 177 184 191 192 202 223 232 227 219
228 248 236 214 207 204 201 197 192 184 184 185 185 187 190 189 191 194 191 194 196 196 186 179 194 187 184 181 183 186 192 196 195 187 182 179 176 177 180 181 186 192 195 183 181 180 183 185 188 186 184 183 183 183 183 187 189 190 200 216 225 226 222
179 210 223 210 198 202 204 199 196 188 187 189 189 187 188 190 191 192 192 193 195 196 191 187 185 184 187 180 182 186 189 190 190 186 174 175 176 181 183 187 193 197 190 183 185 187 188 186 184 183 183 182 185 185 187 190 189 190 197 212 222 225 222
217 187 187 211 201 196 196 206 201 190 185 186 187 184 186 187 188 192 192 193 193 197 192 183 176 174 182 187 185 186 176 173 177 176 177 177 181 185 186 186 190 193 194 191 188 188 189 185 184 186 183 180 181 185 188 191 190 182 188 209 221 222 222
244 249 214 225 215 197 191 201 204 193 186 185 183 183 186 187 189 191 192 189 190 189 193 181 174 178 175 188 172 179 161 162 166 172 178 184 188 186 185 190 192 194 198 197 193 189 185 181 181 189 183 179 177 181 187 187 187 170 184 201 216 221 220
245 252 255 225 209 198 194 192 200 197 192 188 186 184 184 185 187 188 190 188 189 188 188 181 184 187 176 175 160 153 150 160 168 172 177 179 189 191 193 195 198 202 204 203 195 193 191 183 177 181 175 177 183 184 188 192 174 169 176 192 198 204 218
230 244 250 174 194 202 204 196 199 201 198 194 189 185 186 183 185 187 187 184 185 182 186 184 186 175 163 169 157 158 164 168 181 186 187 191 193 194 194 199 204 208 206 204 197 194 193 179 170 175 177 179 187 192 194 200 166 166 174 188 197 203 214
242 243 249 212 215 218 204 199 202 201 201 197 193 189 185 183 181 181 181 178 179 180 181 176 171 170 152 158 158 164 171 177 182 192 195 193 193 196 199 203 209 210 207 199 188 184 174 165 168 166 175 178 187 196 198 210 160 171 176 187 194 194 199
223 225 210 202 212 218 211 204 199 196 195 196 192 186 182 180 178 176 176 174 175 173 170 169 168 158 150 156 162 166 171 175 182 191 191 188 192 198 202 206 210 214 212 209 203 191 180 175 172 172 176 182 188 200 204 215 158 176 180 188 185 181 190
220 204 209 207 199 200 197 200 200 195 191 191 186 183 183 180 179 177 178 173 170 168 168 170 169 166 151 161 164 166 171 181 184 186 181 184 191 197 203 204 202 206 207 213 208 196 179 176 182 183 185 187 188 203 204 189 158 172 177 177 181 173 190
230 229 228 211 204 205 200 199 197 191 180 184 184 179 182 179 176 173 168 167 167 165 165 171 171 170 158 162 166 164 169 175 176 176 177 183 189 200 205 204 198 195 200 197 199 190 184 185 192 187 188 188 190 203 201 214 170 167 171 171 177 171 201
229 229 226 213 202 199 185 190 189 183 184 180 181 179 179 173 168 165 161 162 161 161 165 169 166 169 171 173 175 174 173 178 184 183 178 182 191 196 199 199 200 202 198 196 203 207 198 196 197 191 193 200 212 216 212 218 165 169 169 174 174 187 202
228 225 216 205 196 189 182 185 189 177 180 178 179 172 169 170 168 163 163 160 159 160 160 165 168 169 171 168 162 161 162 175 180 181 180 182 189 192 192 199 198 201 198 203 207 216 216 213 203 202 194 209 227 214 211 225 162 172 171 178 183 193 211
221 215 214 208 201 185 174 171 177 173 175 170 170 173 170 171 163 161 156 154 156 158 158 157 150 153 157 157 161 165 171 174 178 177 177 178 180 183 185 186 188 189 189 190 200 205 208 202 208 210 212 211 213 198 210 221 176 176 178 185 186 196 210
206 211 210 195 179 157 158 168 173 179 179 175 163 163 162 154 156 155 154 150 152 151 150 143 143 149 153 156 161 166 171 176 176 174 168 165 172 176 182 184 180 181 177 184 186 182 188 200 210 214 224 215 205 213 210 219 208 173 185 183 183 196 209
194 190 193 193 149 156 158 165 165 176 169 158 156 148 142 146 146 148 146 148 144 143 138 139 145 148 149 155 160 163 170 169 169 174 167 165 173 184 178 180 174 180 173 184 176 169 177 198 208 203 198 209 205 214 208 189 194 154 180 181 190 197 203
185 186 166 136 145 154 154 156 162 149 138 143 145 146 151 141 134 133 137 134 136 137 139 142 141 140 143 147 153 159 165 169 169 162 167 169 168 172 176 179 176 171 165 174 143 155 168 187 219 211 209 209 203 187 191 136 126 144 167 182 183 189 198
155 147 145 157 157 161 157 142 133 142 147 146 145 141 131 121 125 136 140 139 136 128 128 133 134 136 139 142 146 156 159 154 158 162 161 168 170 174 174 174 163 159 169 164 154 167 175 181 196 214 208 202 200 195 201 167 150 149 155 166 182 185 198
149 156 155 141 121 106 107 115 113 113 116 121 123 126 126 130 131 127 120 117 120 126 133 136 138 138 140 145 153 157 157 156 162 167 165 165 171 166 162 166 159 161 168 168 167 175 179 187 196 206 210 209 202 198 194 178 165 155 148 157 162 172 180
104 105 107 115 117 113 108 104 100 95 92 92 96 103 113 126 128 124 123 124 126 131 129 130 130 136 145 148 158 163 163 161 164 166 166 164 162 156 167 169 170 166 168 172 181 184 187 194 191 193 197 201 206 199 180 174 181 152 139 143 143 152 177
81 84 98 103 99 103 104 103 103 101 102 102 101 105 109 110 114 121 128 132 132 131 132 131 135 142 157 158 163 162 163 160 159 156 147 156 173 178 175 176 180 164 174 181 191 188 191 194 196 195 198 204 207 203 180 174 185 165 153 171 171 167 157
88 88 86 83 86 93 100 99 97 95 93 94 103 111 114 118 125 128 129 131 133 136 136 139 145 152 159 162 161 155 153 155 145 149 159 168 179 178 183 179 190 177 182 193 192 188 188 200 200 202 203 210 205 207 191 191 194 195 188 175 171 161 161
77 76 78 79 78 81 89 99 101 105 104 101 99 102 105 108 122 138 141 146 145 145 145 144 148 147 154 155 154 149 157 157 160 168 161 181 174 78 49 121 206 190 167 51 7 359 208 206 204 212 220 216 215 206 195 190 196 204 167 130 144 160 162
77 78 79 83 84 81 81 82 90 94 96 101 108 113 117 124 132 138 141 142 146 151 148 149 151 150 155 157 158 156 158 159 165 166 170 169 115 122 99 68 62 29 54 100 40 45 44 46 60 22 1 320 42 27 168 203 209 121 121 141 149 136 140
68 73 76 79 80 78 78 80 82 83 84 88 92 100 109 120 128 132 128 133 143 145 146 156 152 152 148 154 158 156 159 162 162 161 178 172 169 155 139 137 62 47 47 51 56 56 56 71 74 49 29 3 99 60 51 69 94 110 122 130 130 125 116
48 58 71 76 74 74 75 73 73 77 84 88 92 97 100 100 100 110 117 113 114 125 140 153 154 157 153 157 151 151 162 165 159 169 173 169 174 175 170 158 150 97 45 40 37 44 54 57 61 56 50 37 64 105 77 55 86 103 104 104 102 99 94